When you browse on this site, cookies collect data to enhance your experience and personalize the content and advertising you see.
Visit our Privacy Policy to learn more. By continuing to use the site, you agree to this use of cookies and data.
  • In Latvia
  • List of Countries
  • For 7 days
  • Water Temperature
  • Weather Map
  • Weather Widgets
  • user-avatar
    Login

    Hourly Weather Zofianow

    Today, 23 February, Sunday

    Time Temperature Precipitation Wind Pressure Humidity
    00:00 +6°C° 0.1 mm 9 mps 743 mmHg 67%
    01:00 +5°C° 0.1 mm 9 mps 743 mmHg 73%
    02:00 +5°C° 0.5 mm 8 mps 743 mmHg 75%
    03:00 +4°C° 0.5 mm 8 mps 743 mmHg 77%
    04:00 +3°C° 0.5 mm 7 mps 743 mmHg 79%
    05:00 +3°C° 0.8 mm 7 mps 743 mmHg 79%
    06:00 +3°C° 0.8 mm 7 mps 743 mmHg 79%
    07:00 +3°C° 0.8 mm 7 mps 743 mmHg 79%
    08:00 +2°C° 0 mm 8 mps 743 mmHg 74%
    09:00 +4°C° 0 mm 8 mps 743 mmHg 69%
    10:00 +3°C° 0 mm 9 mps 743 mmHg 64%
    11:00 +4°C° 0.1 mm 8 mps 742 mmHg 69%
    12:00 +4°C° 0.1 mm 8 mps 742 mmHg 73%
    13:00 +4°C° 0.1 mm 8 mps 742 mmHg 77%
    14:00 +3°C° 0.1 mm 7 mps 740 mmHg 81%
    15:00 +3°C° 0.1 mm 6 mps 739 mmHg 84%
    16:00 +4°C° 0.1 mm 4 mps 738 mmHg 87%
    17:00 +4°C° 1.6 mm 4 mps 736 mmHg 90%
    18:00 +4°C° 1.6 mm 3 mps 735 mmHg 93%
    19:00 +5°C° 1.6 mm 2 mps 734 mmHg 96%
    20:00 +4°C° 0.7 mm 3 mps 732 mmHg 94%
    21:00 +5°C° 0.7 mm 4 mps 731 mmHg 93%
    22:00 +5°C° 0.7 mm 5 mps 730 mmHg 91%
    23:00 +4°C° 1.1 mm 7 mps 731 mmHg 91%

    Tomorrow, 24 February, Monday

    Time Temperature Precipitation Wind Pressure Humidity
    00:00 +2°C° 1.1 mm 9 mps 732 mmHg 92%
    01:00 +1°C° 1.1 mm 10 mps 734 mmHg 92%
    02:00 +1°C° 0.5 mm 10 mps 735 mmHg 86%
    03:00 +1°C° 0.5 mm 10 mps 737 mmHg 80%
    04:00 +1°C° 0.5 mm 10 mps 739 mmHg 74%
    05:00 0°C° 0.2 mm 10 mps 740 mmHg 76%
    06:00 0°C° 0.2 mm 9 mps 741 mmHg 77%
    07:00 0°C° 0.2 mm 9 mps 742 mmHg 79%
    08:00 0°C° 0 mm 9 mps 743 mmHg 78%
    09:00 0°C° 0 mm 9 mps 744 mmHg 77%
    10:00 +1°C° 0 mm 9 mps 744 mmHg 76%
    11:00 +1°C° 0 mm 8 mps 745 mmHg 75%
    12:00 +1°C° 0 mm 8 mps 745 mmHg 74%
    13:00 +2°C° 0 mm 8 mps 745 mmHg 73%
    14:00 +3°C° 0.1 mm 7 mps 745 mmHg 72%
    15:00 +3°C° 0.1 mm 6 mps 745 mmHg 70%
    16:00 +3°C° 0.1 mm 6 mps 745 mmHg 69%
    17:00 +2°C° 0 mm 5 mps 745 mmHg 71%
    18:00 +2°C° 0 mm 5 mps 745 mmHg 74%
    19:00 +1°C° 0 mm 4 mps 744 mmHg 76%
    20:00 +1°C° 0 mm 4 mps 744 mmHg 77%
    21:00 +1°C° 0 mm 4 mps 743 mmHg 77%
    22:00 +1°C° 0 mm 4 mps 743 mmHg 78%
    23:00 +1°C° 0.1 mm 4 mps 742 mmHg 80%

    Day after tomorrow, 25 February, Tuesday

    Time Temperature Precipitation Wind Pressure Humidity
    00:00 +1°C° 0.1 mm 5 mps 741 mmHg 82%
    01:00 +1°C° 0.1 mm 5 mps 739 mmHg 84%
    02:00 +1°C° 0.3 mm 6 mps 738 mmHg 83%
    03:00 +2°C° 0.3 mm 7 mps 737 mmHg 81%
    04:00 +2°C° 0.3 mm 8 mps 735 mmHg 80%
    05:00 +4°C° 0.7 mm 8 mps 735 mmHg 82%
    06:00 +4°C° 0.7 mm 8 mps 734 mmHg 84%
    07:00 +5°C° 0.7 mm 9 mps 733 mmHg 87%
    08:00 +6°C° 0.1 mm 9 mps 733 mmHg 85%
    09:00 +6°C° 0.1 mm 8 mps 733 mmHg 83%
    10:00 +7°C° 0.1 mm 8 mps 733 mmHg 81%
    11:00 +8°C° 0.1 mm 7 mps 734 mmHg 80%
    12:00 +8°C° 0.1 mm 7 mps 734 mmHg 79%
    13:00 +8°C° 0.1 mm 6 mps 734 mmHg 77%
    14:00 +8°C° 0.1 mm 6 mps 733 mmHg 75%
    15:00 +8°C° 0.1 mm 5 mps 733 mmHg 74%
    16:00 +8°C° 0.1 mm 5 mps 732 mmHg 72%
    17:00 +8°C° 0.4 mm 5 mps 732 mmHg 77%
    18:00 +7°C° 0.4 mm 4 mps 732 mmHg 83%
    19:00 +6°C° 0.4 mm 4 mps 732 mmHg 88%
    20:00 +6°C° 0.6 mm 4 mps 732 mmHg 82%
    21:00 +5°C° 0.6 mm 5 mps 732 mmHg 76%
    22:00 +5°C° 0.6 mm 5 mps 732 mmHg 70%
    23:00 +3°C° 0 mm 5 mps 732 mmHg 71%

    26 February, Wednesday

    Time Temperature Precipitation Wind Pressure Humidity
    00:00 +3°C° 0 mm 4 mps 732 mmHg 71%
    01:00 +3°C° 0 mm 4 mps 732 mmHg 72%
    02:00 +1°C° 0 mm 4 mps 732 mmHg 73%
    03:00 +1°C° 0 mm 4 mps 732 mmHg 75%
    04:00 +1°C° 0 mm 3 mps 732 mmHg 76%
    05:00 +1°C° 0 mm 3 mps 731 mmHg 77%
    06:00 +1°C° 0 mm 3 mps 731 mmHg 77%
    07:00 +1°C° 0 mm 3 mps 731 mmHg 78%
    08:00 +2°C° 0 mm 3 mps 730 mmHg 73%
    09:00 +3°C° 0 mm 4 mps 730 mmHg 69%
    10:00 +5°C° 0 mm 4 mps 730 mmHg 64%
    11:00 +5°C° 0 mm 4 mps 730 mmHg 61%
    12:00 +6°C° 0 mm 4 mps 730 mmHg 59%
    13:00 +7°C° 0 mm 4 mps 729 mmHg 56%
    14:00 +7°C° 0 mm 3 mps 729 mmHg 58%
    15:00 +7°C° 0 mm 3 mps 729 mmHg 60%
    16:00 +7°C° 0 mm 3 mps 729 mmHg 63%
    17:00 +5°C° 0 mm 3 mps 730 mmHg 67%
    18:00 +5°C° 0 mm 2 mps 730 mmHg 71%
    19:00 +5°C° 0 mm 2 mps 731 mmHg 75%
    20:00 +3°C° 0 mm 3 mps 731 mmHg 77%
    21:00 +1°C° 0 mm 4 mps 731 mmHg 79%
    22:00 +1°C° 0 mm 5 mps 732 mmHg 81%
    23:00 +1°C° 0 mm 5 mps 732 mmHg 82%

    27 February, Thursday

    Time Temperature Precipitation Wind Pressure Humidity
    00:00 0°C° 0 mm 4 mps 732 mmHg 84%
    01:00 0°C° 0 mm 4 mps 733 mmHg 85%
    02:00 0°C° 0 mm 4 mps 733 mmHg 89%
    03:00 -1°C° 0 mm 5 mps 734 mmHg 92%
    04:00 -1°C° 0 mm 5 mps 734 mmHg 95%
    05:00 -1°C° 0 mm 5 mps 734 mmHg 91%
    06:00 0°C° 0 mm 5 mps 735 mmHg 87%
    07:00 0°C° 0 mm 5 mps 736 mmHg 83%
    08:00 -1°C° 0 mm 6 mps 736 mmHg 77%
    09:00 0°C° 0 mm 7 mps 737 mmHg 71%
    10:00 0°C° 0 mm 8 mps 738 mmHg 65%
    11:00 0°C° 0 mm 8 mps 738 mmHg 64%
    12:00 0°C° 0 mm 8 mps 738 mmHg 64%
    13:00 0°C° 0 mm 8 mps 739 mmHg 63%
    14:00 0°C° 0 mm 7 mps 739 mmHg 64%
    15:00 0°C° 0 mm 7 mps 740 mmHg 65%
    16:00 +1°C° 0 mm 6 mps 740 mmHg 67%
    17:00 0°C° 0 mm 5 mps 740 mmHg 69%
    18:00 -1°C° 0 mm 4 mps 741 mmHg 71%
    19:00 -1°C° 0 mm 4 mps 741 mmHg 74%
    20:00 -1°C° 0 mm 3 mps 742 mmHg 75%
    21:00 -1°C° 0 mm 3 mps 742 mmHg 76%
    22:00 -1°C° 0 mm 2 mps 742 mmHg 77%
    23:00 -1°C° 0 mm 2 mps 742 mmHg 77%

    28 February, Friday

    Time Temperature Precipitation Wind Pressure Humidity
    00:00 -2°C° 0 mm 3 mps 741 mmHg 77%
    01:00 -2°C° 0 mm 3 mps 741 mmHg 77%
    02:00 -1°C° 0 mm 3 mps 741 mmHg 78%
    03:00 -1°C° 0 mm 3 mps 741 mmHg 80%
    04:00 -2°C° 0 mm 4 mps 740 mmHg 81%
    05:00 -2°C° 0 mm 4 mps 740 mmHg 78%
    06:00 -2°C° 0 mm 5 mps 740 mmHg 76%
    07:00 -2°C° 0 mm 6 mps 740 mmHg 74%
    08:00 -1°C° 0 mm 7 mps 739 mmHg 72%
    09:00 0°C° 0 mm 7 mps 739 mmHg 71%
    10:00 +1°C° 0 mm 8 mps 739 mmHg 69%
    11:00 +2°C° 0 mm 8 mps 738 mmHg 69%
    12:00 +4°C° 0 mm 8 mps 738 mmHg 69%
    13:00 +5°C° 0 mm 8 mps 737 mmHg 68%
    14:00 +5°C° 0 mm 7 mps 737 mmHg 70%
    15:00 +5°C° 0 mm 7 mps 737 mmHg 72%
    16:00 +5°C° 0 mm 7 mps 737 mmHg 74%
    17:00 +5°C° 0 mm 7 mps 737 mmHg 78%
    18:00 +5°C° 0 mm 7 mps 737 mmHg 81%
    19:00 +5°C° 0 mm 6 mps 738 mmHg 85%
    20:00 +5°C° 0 mm 6 mps 738 mmHg 84%
    21:00 +5°C° 0 mm 7 mps 738 mmHg 83%
    22:00 +5°C° 0 mm 7 mps 738 mmHg 83%
    23:00 +5°C° 0 mm 6 mps 738 mmHg 83%
    Show more